Weather History for Kendall, FL

Change the Weather History Date:

Sunday, August 25, 2013

  Actual Average Record
Temperature  
Mean Temperature 84 °F -  
Max Temperature 90 °F 91 °F 96 °F (1998)
Min Temperature 77 °F 72 °F 69 °F (1992)
Cooling Degree Days 18    
Growing Degree Days 34 (Base 50)    
Moisture  
Dew Point 75 °F    
Average Humidity 80    
Maximum Humidity 96    
Minimum Humidity 59    
Precipitation  
Precipitation 0.00 in - - ()
Sea Level Pressure  
Sea Level Pressure 30.09 in    
Wind  
Wind Speed 5 mph (ENE)    
Max Wind Speed 17 mph    
Max Gust Speed -    
Visibility 10 miles    
Events Rain , Thunderstorm    
Averages and records for this station are not official NWS values.
T = Trace of Precipitation, MM = Missing Value Source: NWS Daily Summary

Daily Weather History Graph

Daily Weather History Graph

Search for Another Location

Airport:

Trip Planner

Search our weather history database for the weather conditions in past years. The results will help you decide how hot, cold, wet, or windy it might be!

Date:

Astronomy

Aug. 25, 2013 Rise Set
Actual Time 6:59 AM EDT 7:47 PM EDT
Civil Twilight 6:35 AM EDT 8:11 PM EDT
Nautical Twilight 6:08 AM EDT 8:38 PM EDT
Astronomical Twilight 5:39 AM EDT 9:07 PM EDT
Moon 10:55 PM EDT (8/25) 11:24 AM EDT (8/25)
Length of Visible Light 13h 35m
Length of Day
12h 48m
Waning Gibbous, 76% of the Moon is Illuminated
Aug 25
Waning Gibbous
Aug 28
Last Quarter
Sep 5
New
Sep 12
First Quarter
Sep 19
Full

Hourly Weather History & Observations

Time (EDT) Temp. Heat Index Dew Point Humidity Pressure Visibility Wind Dir Wind Speed Gust Speed Precip Events Conditions
12:53 AM 80.1 °F 85.1 °F 75.0 °F 85% 30.07 in 10.0 mi ESE 3.5 mph - N/A   Clear
1:53 AM 82.0 °F 88.6 °F 75.0 °F 79% 30.06 in 10.0 mi Calm Calm - N/A   Clear
2:53 AM 78.1 °F - 75.9 °F 93% 30.04 in 10.0 mi Calm Calm - N/A   Clear
3:53 AM 78.1 °F - 75.9 °F 93% 30.03 in 10.0 mi Calm Calm - N/A   Clear
4:53 AM 78.1 °F - 75.9 °F 93% 30.05 in 10.0 mi NW 3.5 mph - N/A   Scattered Clouds
5:53 AM 77.0 °F - 75.9 °F 96% 30.06 in 10.0 mi Calm Calm - N/A   Clear
6:53 AM 77.0 °F - 75.9 °F 96% 30.09 in 10.0 mi Calm Calm - N/A   Clear
7:53 AM 80.1 °F 86.4 °F 78.1 °F 94% 30.10 in 10.0 mi North 4.6 mph - N/A   Clear
8:53 AM 82.9 °F 92.8 °F 78.1 °F 85% 30.10 in 10.0 mi North 8.1 mph - N/A   Clear
9:53 AM 82.9 °F 92.8 °F 78.1 °F 85% 30.12 in 10.0 mi North 5.8 mph - N/A   Clear
10:53 AM 82.9 °F 90.8 °F 75.9 °F 79% 30.14 in 10.0 mi NNE 8.1 mph - N/A   Scattered Clouds
11:17 AM 80.6 °F 84.6 °F 71.6 °F 74% 30.16 in 10.0 mi ENE 17.3 mph - N/A   Mostly Cloudy
11:41 AM 78.8 °F - 71.6 °F 78% 30.15 in 10.0 mi ENE 9.2 mph - 0.00 in Rain Light Rain
11:53 AM 79.0 °F - 70.0 °F 74% 30.15 in 10.0 mi ENE 9.2 mph - 0.00 in Rain Light Rain
12:53 PM 82.0 °F 88.6 °F 75.0 °F 79% 30.13 in 10.0 mi East 8.1 mph - 0.00 in   Clear
1:53 PM 86.0 °F 96.0 °F 75.9 °F 72% 30.12 in 10.0 mi East 10.4 mph - N/A   Clear
2:53 PM 88.0 °F 97.5 °F 75.0 °F 65% 30.08 in 10.0 mi East 9.2 mph - N/A   Partly Cloudy
3:53 PM 90.0 °F 99.0 °F 73.9 °F 59% 30.05 in 10.0 mi East 9.2 mph - N/A   Clear
4:53 PM 88.0 °F 97.5 °F 75.0 °F 65% 30.05 in 10.0 mi East 9.2 mph - N/A   Partly Cloudy
5:53 PM 86.0 °F 93.8 °F 73.9 °F 67% 30.06 in 10.0 mi East 11.5 mph - N/A   Mostly Cloudy
6:53 PM 82.9 °F 89.4 °F 73.9 °F 74% 30.06 in 10.0 mi East 11.5 mph - N/A   Scattered Clouds
7:53 PM 82.0 °F 88.6 °F 75.0 °F 79% 30.08 in 10.0 mi East 8.1 mph - N/A   Clear
8:53 PM 82.0 °F 88.6 °F 75.0 °F 79% 30.09 in 10.0 mi East 5.8 mph - N/A   Clear
9:53 PM 82.0 °F 89.4 °F 75.9 °F 82% 30.11 in 10.0 mi ENE 6.9 mph - N/A   Clear
10:53 PM 82.0 °F 89.4 °F 75.9 °F 82% 30.11 in 10.0 mi ENE 4.6 mph - N/A   Clear
11:42 PM 82.4 °F 89.5 °F 75.2 °F 79% 30.12 in 10.0 mi NE 4.6 mph - N/A Thunderstorm Clear
11:53 PM 82.0 °F 89.4 °F 75.9 °F 82% 30.12 in 10.0 mi NE 4.6 mph - N/A   Clear